Location: Lac Lasalle
(46.0398°N, 74.1576°W)
Time: 06:17:47
(UTC-04:00)

N. Korean satellite - Visible Passes

Search period start: 19 March 2019 00:00
Search period end: 29 March 2019 00:00
Orbit: 455 x 511 km, 97.2° (Epoch: 18 March)

Date Brightness Start Highest point End Pass type
(mag) Time Alt. Az. Time Alt. Az. Time Alt. Az.
20 Mar 9.9 06:14:22 10° NE 06:16:38 16° E 06:18:54 10° SE visible
24 Mar 10.0 06:08:45 10° ENE 06:10:43 14° E 06:12:42 10° SE visible
28 Mar 10.2 06:03:11 10° ENE 06:04:46 12° E 06:06:21 10° ESE visible
